TimeCDT,TemperatureF,Dew PointF,Humidity,Sea Level PressureIn,VisibilityMPH,Wind Direction,Wind SpeedMPH,Gust SpeedMPH,PrecipitationIn,Events,Conditions,WindDirDegrees,DateUTC
12:15 AM,44.6,41.0,87,30.00,10.0,East,5.8,-,N/A,,Overcast,80,2011-10-23 05:15:00
12:35 AM,44.6,41.0,87,30.00,10.0,East,4.6,-,N/A,,Overcast,80,2011-10-23 05:35:00
12:55 AM,44.6,41.0,87,30.00,10.0,ENE,4.6,-,N/A,,Overcast,70,2011-10-23 05:55:00
1:15 AM,44.6,41.0,87,29.99,10.0,NE,4.6,-,N/A,,Overcast,50,2011-10-23 06:15:00
1:35 AM,46.4,41.0,81,29.98,10.0,ENE,4.6,-,N/A,,Overcast,70,2011-10-23 06:35:00
1:55 AM,44.6,41.0,87,29.98,10.0,ENE,4.6,-,N/A,,Overcast,60,2011-10-23 06:55:00
2:15 AM,44.6,41.0,87,29.98,10.0,ENE,3.5,-,N/A,,Scattered Clouds,70,2011-10-23 07:15:00
2:35 AM,44.6,39.2,81,29.97,10.0,East,3.5,-,N/A,,Clear,90,2011-10-23 07:35:00
2:55 AM,44.6,41.0,87,29.95,10.0,East,5.8,-,N/A,,Clear,100,2011-10-23 07:55:00
3:15 AM,44.6,41.0,87,29.95,10.0,East,5.8,-,N/A,,Clear,100,2011-10-23 08:15:00
3:35 AM,44.6,41.0,87,29.95,10.0,ESE,5.8,-,N/A,,Clear,110,2011-10-23 08:35:00
3:55 AM,44.6,41.0,87,29.96,10.0,ESE,5.8,-,N/A,,Clear,120,2011-10-23 08:55:00
4:15 AM,44.6,42.8,93,29.95,10.0,ESE,4.6,-,N/A,,Clear,120,2011-10-23 09:15:00
4:35 AM,42.8,41.0,93,29.96,10.0,Calm,Calm,-,N/A,,Clear,0,2011-10-23 09:35:00
4:55 AM,42.8,41.0,93,29.96,10.0,Calm,Calm,-,N/A,,Clear,0,2011-10-23 09:55:00
5:15 AM,41.0,39.2,93,29.96,7.0,SE,4.6,-,N/A,,Clear,140,2011-10-23 10:15:00
5:35 AM,41.0,39.2,93,29.96,2.0,SE,3.5,-,N/A,,Clear,130,2011-10-23 10:35:00
5:55 AM,41.0,39.2,93,29.96,1.2,SE,4.6,-,N/A,,Clear,130,2011-10-23 10:55:00
6:15 AM,42.8,39.2,87,29.96,0.8,SSE,3.5,-,N/A,,Unknown,160,2011-10-23 11:15:00
6:35 AM,42.8,41.0,93,29.96,0.5,SSE,3.5,-,N/A,,Unknown,160,2011-10-23 11:35:00
6:55 AM,42.8,41.0,93,29.96,0.8,Calm,Calm,-,N/A,,Unknown,0,2011-10-23 11:55:00
7:15 AM,42.8,41.0,93,29.95,0.2,Calm,Calm,-,N/A,,Unknown,0,2011-10-23 12:15:00
7:35 AM,39.2,37.4,93,29.95,0.2,Calm,Calm,-,N/A,,Unknown,0,2011-10-23 12:35:00
7:55 AM,37.4,37.4,100,29.95,0.2,South,3.5,-,N/A,,Unknown,170,2011-10-23 12:55:00
8:15 AM,39.2,35.6,87,29.95,0.2,Calm,Calm,-,N/A,,Unknown,0,2011-10-23 13:15:00
8:35 AM,42.8,42.8,100,29.95,1.0,Calm,Calm,-,N/A,,Clear,0,2011-10-23 13:35:00
8:55 AM,44.6,44.6,100,29.94,4.0,SSW,4.6,-,N/A,,Partly Cloudy,210,2011-10-23 13:55:00
9:15 AM,44.6,44.6,100,29.94,3.0,SSW,4.6,-,N/A,,Scattered Clouds,200,2011-10-23 14:15:00
9:55 AM,46.4,44.6,93,29.92,8.0,SSW,5.8,-,N/A,,Partly Cloudy,200,2011-10-23 14:55:00
10:15 AM,48.2,44.6,87,29.92,10.0,South,6.9,-,N/A,,Clear,190,2011-10-23 15:15:00
10:35 AM,50.0,44.6,82,29.91,10.0,SSW,6.9,-,N/A,,Clear,200,2011-10-23 15:35:00
10:55 AM,51.8,44.6,76,29.91,10.0,South,5.8,-,N/A,,Clear,190,2011-10-23 15:55:00
11:15 AM,53.6,44.6,72,29.92,10.0,SW,4.6,-,N/A,,Clear,220,2011-10-23 16:15:00
11:55 AM,53.6,42.8,67,29.91,10.0,SW,9.2,-,N/A,,Scattered Clouds,230,2011-10-23 16:55:00
12:15 PM,55.4,44.6,67,29.89,10.0,WSW,8.1,-,N/A,,Mostly Cloudy,250,2011-10-23 17:15:00
12:35 PM,55.4,39.2,54,29.88,10.0,SW,9.2,-,N/A,,Mostly Cloudy,230,2011-10-23 17:35:00
12:55 PM,55.4,39.2,54,29.88,10.0,SW,10.4,-,N/A,,Mostly Cloudy,220,2011-10-23 17:55:00
1:15 PM,55.4,37.4,51,29.87,10.0,WSW,10.4,-,N/A,,Overcast,240,2011-10-23 18:15:00
1:35 PM,55.4,37.4,51,29.87,10.0,SSW,11.5,-,N/A,,Overcast,210,2011-10-23 18:35:00
1:55 PM,53.6,37.4,54,29.86,10.0,SSW,11.5,-,N/A,,Overcast,200,2011-10-23 18:55:00
2:15 PM,51.8,41.0,67,29.85,10.0,South,5.8,-,N/A,,Overcast,170,2011-10-23 19:15:00
2:35 PM,51.8,42.8,71,29.84,10.0,South,6.9,-,N/A,,Overcast,190,2011-10-23 19:35:00
2:55 PM,51.8,42.8,71,29.83,10.0,South,6.9,-,N/A,,Overcast,180,2011-10-23 19:55:00
3:15 PM,53.6,42.8,67,29.82,10.0,South,8.1,-,N/A,,Overcast,190,2011-10-23 20:15:00
3:35 PM,53.6,42.8,67,29.81,10.0,SSE,6.9,-,N/A,,Overcast,150,2011-10-23 20:35:00
3:55 PM,51.8,44.6,76,29.80,7.0,SE,8.1,-,0.01,,Overcast,140,2011-10-23 20:55:00
4:15 PM,50.0,46.4,87,29.82,7.0,South,4.6,-,0.01,,Overcast,190,2011-10-23 21:15:00
4:35 PM,50.0,46.4,87,29.83,5.0,South,4.6,-,0.05,,Overcast,190,2011-10-23 21:35:00
4:55 PM,48.2,46.4,93,29.82,5.0,South,5.8,-,0.05,,Overcast,170,2011-10-23 21:55:00
5:15 PM,48.2,46.4,93,29.79,5.0,SE,10.4,-,0.02,,Overcast,140,2011-10-23 22:15:00
5:35 PM,48.2,46.4,93,29.78,6.0,South,6.9,-,0.03,,Overcast,170,2011-10-23 22:35:00
5:55 PM,48.2,46.4,93,29.79,8.0,South,5.8,-,0.03,,Overcast,170,2011-10-23 22:55:00
6:36 PM,48.2,44.6,87,29.79,10.0,South,6.9,-,N/A,,Overcast,170,2011-10-23 23:36:00
6:55 PM,48.2,44.6,87,29.79,10.0,South,8.1,-,N/A,,Overcast,170,2011-10-23 23:55:00
7:15 PM,48.2,46.4,93,29.77,10.0,SSE,10.4,-,N/A,,Overcast,160,2011-10-24 00:15:00
7:35 PM,48.2,46.4,93,29.77,8.0,South,9.2,-,N/A,,Overcast,180,2011-10-24 00:35:00
7:55 PM,50.0,46.4,87,29.77,5.0,SSW,12.7,20.7,0.01,,Overcast,200,2011-10-24 00:55:00
8:15 PM,50.0,48.2,94,29.75,7.0,South,12.7,-,N/A,,Overcast,180,2011-10-24 01:15:00
8:35 PM,50.0,46.4,87,29.75,9.0,South,10.4,-,N/A,,Overcast,170,2011-10-24 01:35:00
8:55 PM,48.2,46.4,93,29.75,5.0,South,9.2,-,N/A,,Mostly Cloudy,170,2011-10-24 01:55:00
9:15 PM,50.0,46.4,87,29.75,6.0,South,9.2,-,N/A,,Overcast,180,2011-10-24 02:15:00
9:35 PM,50.0,46.4,87,29.75,7.0,South,9.2,-,N/A,,Overcast,180,2011-10-24 02:35:00
9:55 PM,50.0,46.4,87,29.74,8.0,South,9.2,-,N/A,,Mostly Cloudy,190,2011-10-24 02:55:00
10:36 PM,48.2,46.4,93,29.75,7.0,SW,6.9,-,N/A,,Overcast,230,2011-10-24 03:36:00
10:55 PM,48.2,46.4,93,29.75,7.0,WSW,6.9,-,N/A,,Overcast,240,2011-10-24 03:55:00
11:15 PM,48.2,46.4,93,29.76,10.0,WSW,10.4,-,N/A,,Overcast,250,2011-10-24 04:15:00
11:35 PM,50.0,46.4,87,29.77,10.0,West,9.2,16.1,N/A,,Overcast,280,2011-10-24 04:35:00
11:55 PM,50.0,44.6,82,29.78,10.0,WNW,13.8,17.3,N/A,,Overcast,300,2011-10-24 04:55:00